SCP
0 1 1 0 0 0 0 0 0 0 0 0 0 0 0 0 0 0 0 0 0 0 0 0 0 0 0 0 0 0 0 0
0 1 1 0 0 0 0 0 0 0 0 0 0 0 0 0 0 0 0 0 0 0 0 0 0 0 0 0 0 0 0 0
0 0 1 0 0 0 0 0 0 0 0 0 0 0 0 0 0 0 0 0 0 0 0 0 0 0 0 0 0 0 0 0
0 0 0 0 0 0 0 0 0 0 0 0 0 0 0 0 0 0 0 0 0 0 0 0 0 0 -0 0 -0 0 0 0
1 0 0 0 0 0 0 0 0 0 0 0 0 0 0 0 0 0 0 0 0 0 0 0 0 -0 -0 0 0 0 0 0
1 0 0 0 0 0 0 0 0 0 0 0 0 0 0 -0 -0 -0 -0 0 0 0 0 0 -0 0 0 0 0 0 -0 0
1 0 0 0 0 0 0 0 0 0 0 0 0 0 -0 -0 -0 -0 -0 -0 0 0 0 -0 -0 -0 0 -0 0 0 -0 -0
1 0 0 0 0 0 0 0 0 0 0 0 -0 -0 -0 -0 -0 -0 0 0 0 0 0 -0 -0 -0 0 -0 0 0 -0 -0
0 0 0 0 0 0 0 0 0 0 0 -0 -0 -0 -0 -0 -0 -0 0 0 0 0 0 0 -0 -0 -0 -0 0 0 0 0
0 0 0 0 0 0 0 -0 0 0 0 -0 -0 -0 -0 -0 -0 -0 -0 -0 -0 0 0 0 -0 -0 -0 0 0 0 0 0
0 0 0 0 0 0 0 -0 -0 0 -0 -0 -0 -0 -0 -0 -0 -0 -0 -0 0 0 0 0 -0 -0 0 -0 -0 0 0 0
0 0 0 0 0 0 -0 -0 0 0 -0 -0 -0 -0 -0 -0 -0 -0 -0 -0 0 0 0 0 0 0 0 0 0 0 0 0
0 0 0 0 0 0 -0 -0 0 -0 -0 -0 0 -0 -0 -0 -0 0 -0 0 0 0 0 0 0 -0 0 0 -0 0 0 0
0 0 0 0 0 0 0 0 0 -0 0 0 0 -0 -0 -0 -0 -0 -0 0 0 0 0 0 0 -0 -0 0 -0 0 -0 -0
0 0 0 0 0 -0 -0 -0 0 0 0 -0 0 0 -0 0 0 0 0 0 0 0 0 0 0 -0 -0 -0 0 -0 -0 0
0 0 0 0 0 -0 -0 -0 0 0 -0 -0 0 -0 -0 0 0 0 0 0 0 0 0 0 0 -0 -0 -0 -0 0 -0 0
0 0 0 0 0 0 0 -0 -0 -0 -0 -0 0 0 -0 -0 0 0 0 0 -0 0 0 0 0 0 0 0 -0 -0 -0 -0
0 0 0 0 0 0 0 0 -0 -0 -0 0 0 0 0 0 0 0 0 0 -0 -0 -0 0 0 0 0 0 0 0 0 0
0 -0 0 0 0 0 0 0 0 0 0 0 0 0 -0 -0 0 0 0 0 0 0 0 0 0 0 0 0 0 0 0 0
0 0 0 0 0 0 0 0 0 0 0 0 0 0 0 0 0 0 0 0 0 0 0 0 -0 0 -0 0 0 0 0 0
Wind_Speed_500mb
15 7 18 33 39 42 45 45 46 47 46 46 43 39 36 33 30 28 26 27 26 22 19 15 11 11 13 14 16 23 26 32
9 6 14 32 38 41 44 45 46 48 45 42 40 35 31 30 29 29 28 27 26 21 16 10 8 7 9 12 18 19 20 29
4 11 14 29 39 43 44 46 46 44 41 38 36 34 31 29 29 30 29 28 23 18 13 9 4 4 6 7 5 6 11 14
0 18 21 32 40 44 47 47 43 40 38 36 35 31 29 28 29 31 31 26 22 18 13 8 4 3 1 2 10 4 7 14
7 26 29 35 42 45 47 45 42 40 38 36 31 28 26 26 30 32 28 24 21 17 14 8 4 5 6 6 13 9 10 12
13 32 37 39 44 46 45 42 41 40 37 33 27 24 25 30 33 31 26 25 22 14 15 9 7 8 8 8 13 8 10 12
20 39 42 45 49 48 45 42 42 38 34 30 25 24 30 31 30 27 29 26 19 15 14 9 7 9 9 11 10 5 11 12
31 42 46 52 53 50 46 45 42 36 32 28 24 26 30 30 28 28 25 25 19 13 13 10 7 9 10 11 9 13 14 20
37 43 51 54 54 52 49 46 41 35 29 27 26 29 30 31 28 26 25 26 22 18 16 13 10 11 12 11 12 18 24 18
40 47 50 53 53 50 49 46 41 33 30 30 30 31 29 30 28 25 24 24 22 19 18 15 14 14 14 14 16 23 28 22
41 47 50 50 49 48 50 48 41 35 36 33 31 29 27 25 25 24 23 23 21 18 17 16 18 21 15 16 21 29 30 24
43 47 49 51 48 47 50 48 42 36 37 35 31 28 24 20 17 17 20 20 20 19 19 19 20 26 21 19 25 33 30 39
45 47 49 49 49 48 50 47 42 40 40 34 29 23 21 18 14 14 10 15 19 18 18 19 21 29 27 22 26 35 39 40
47 48 48 50 50 48 48 47 43 43 40 35 29 24 19 17 16 17 18 17 20 23 27 20 20 21 29 27 24 31 38 39
42 48 50 48 46 46 46 45 44 42 37 32 29 24 19 17 19 17 23 22 20 21 22 22 20 30 33 31 31 31 36 36
34 39 43 45 42 42 42 43 44 42 35 33 27 23 19 16 19 18 17 18 20 23 23 24 28 28 30 28 34 37 41 31
47 50 39 38 35 32 36 37 40 43 37 31 26 24 20 18 17 20 19 18 23 21 28 28 31 32 28 28 30 33 34 24
41 37 35 35 30 18 26 34 37 40 37 32 26 25 23 20 17 20 18 19 19 20 20 25 34 35 33 34 36 29 30 25
43 36 34 29 26 33 26 28 35 37 38 34 29 26 24 23 19 19 19 19 18 19 21 16 26 27 28 29 29 26 25 20
39 45 48 26 23 24 32 44 38 32 34 33 33 27 25 24 22 19 19 20 19 19 21 20 26 27 20 23 25 22 20 20
Wind_Direction_500mb
12 98 141 146 143 141 140 139 138 137 136 137 137 140 143 146 150 155 150 148 148 149 156 164 185 217 235 237 232 229 236 230
29 158 164 150 145 143 142 141 139 138 139 140 140 143 146 146 146 146 147 148 148 154 156 163 188 222 236 247 251 256 251 237
46 188 163 155 149 145 142 140 140 140 141 140 139 140 142 142 145 150 151 150 151 154 145 151 157 235 253 227 254 238 224 246
173 189 170 161 153 148 146 144 143 143 141 138 138 140 145 150 150 153 152 153 154 152 137 134 161 145 138 138 131 163 131 137
238 188 177 166 158 154 152 148 146 144 141 141 141 143 150 155 158 155 157 159 157 150 127 120 99 108 83 77 111 133 131 146
211 184 178 169 161 157 154 150 149 146 147 146 149 150 154 148 152 159 163 155 156 145 126 110 98 98 96 90 116 132 149 159
199 180 172 165 162 161 157 153 152 152 151 154 156 156 162 160 162 166 164 164 160 144 127 115 98 108 104 100 103 137 150 149
177 175 167 164 164 163 158 155 156 157 159 159 155 158 162 162 164 165 168 173 160 149 130 122 124 116 105 95 97 111 127 131
170 169 166 166 165 162 160 158 159 157 156 152 156 157 158 164 165 170 172 167 166 155 139 130 144 126 114 98 107 121 127 124
168 165 165 165 164 162 162 162 158 157 151 152 153 152 152 165 170 166 172 176 171 165 152 145 150 141 136 109 115 130 113 120
167 164 163 164 164 163 162 161 160 156 151 151 152 146 146 155 167 184 182 189 183 173 164 157 156 153 149 122 125 140 127 123
165 164 164 164 164 163 162 160 160 158 155 155 152 146 147 150 162 181 186 187 183 176 167 158 161 159 168 146 138 145 136 127
164 164 165 164 164 163 164 162 159 157 158 156 151 155 148 151 153 157 164 175 175 174 165 164 175 170 174 161 147 152 151 139
163 163 160 160 162 162 166 165 163 159 158 157 152 147 146 155 155 156 152 149 156 168 158 155 164 173 167 160 156 162 161 151
161 160 158 155 156 166 168 168 168 166 163 160 156 150 149 155 163 162 146 144 143 149 153 163 160 158 160 165 157 153 163 160
134 153 159 163 165 166 170 175 174 175 170 167 161 159 157 153 162 165 154 151 141 148 147 147 143 152 157 158 158 159 159 162
135 125 129 145 151 165 175 177 180 181 176 173 170 169 165 156 158 170 157 157 141 141 151 151 152 153 151 159 166 173 169 176
127 127 125 117 121 132 160 181 179 179 178 176 169 170 169 167 157 166 160 146 136 138 142 167 165 166 164 164 170 180 181 182
113 120 131 135 151 152 157 166 178 175 176 182 170 169 163 166 164 163 167 162 149 144 145 160 166 164 176 176 169 185 185 181
90 101 92 112 137 166 174 173 163 177 175 182 182 180 177 177 172 163 165 167 165 154 156 155 142 144 167 179 183 179 186 187
Wind_Speed_850mb
15 7 18 33 39 42 45 45 46 47 46 46 43 39 36 33 30 28 26 27 26 22 19 15 11 11 13 14 16 23 26 32
9 6 14 32 38 41 44 45 46 48 45 42 40 35 31 30 29 29 28 27 26 21 16 10 8 7 9 12 18 19 20 29
4 11 14 29 39 43 44 46 46 44 41 38 36 34 31 29 29 30 29 28 23 18 13 9 4 4 6 7 5 6 11 14
0 18 21 32 40 44 47 47 43 40 38 36 35 31 29 28 29 31 31 26 22 18 13 8 4 3 1 2 10 4 7 14
7 26 29 35 42 45 47 45 42 40 38 36 31 28 26 26 30 32 28 24 21 17 14 8 4 5 6 6 13 9 10 12
13 32 37 39 44 46 45 42 41 40 37 33 27 24 25 30 33 31 26 25 22 14 15 9 7 8 8 8 13 8 10 12
20 39 42 45 49 48 45 42 42 38 34 30 25 24 30 31 30 27 29 26 19 15 14 9 7 9 9 11 10 5 11 12
31 42 46 52 53 50 46 45 42 36 32 28 24 26 30 30 28 28 25 25 19 13 13 10 7 9 10 11 9 13 14 20
37 43 51 54 54 52 49 46 41 35 29 27 26 29 30 31 28 26 25 26 22 18 16 13 10 11 12 11 12 18 24 18
40 47 50 53 53 50 49 46 41 33 30 30 30 31 29 30 28 25 24 24 22 19 18 15 14 14 14 14 16 23 28 22
41 47 50 50 49 48 50 48 41 35 36 33 31 29 27 25 25 24 23 23 21 18 17 16 18 21 15 16 21 29 30 24
43 47 49 51 48 47 50 48 42 36 37 35 31 28 24 20 17 17 20 20 20 19 19 19 20 26 21 19 25 33 30 39
45 47 49 49 49 48 50 47 42 40 40 34 29 23 21 18 14 14 10 15 19 18 18 19 21 29 27 22 26 35 39 40
47 48 48 50 50 48 48 47 43 43 40 35 29 24 19 17 16 17 18 17 20 23 27 20 20 21 29 27 24 31 38 39
42 48 50 48 46 46 46 45 44 42 37 32 29 24 19 17 19 17 23 22 20 21 22 22 20 30 33 31 31 31 36 36
34 39 43 45 42 42 42 43 44 42 35 33 27 23 19 16 19 18 17 18 20 23 23 24 28 28 30 28 34 37 41 31
47 50 39 38 35 32 36 37 40 43 37 31 26 24 20 18 17 20 19 18 23 21 28 28 31 32 28 28 30 33 34 24
41 37 35 35 30 18 26 34 37 40 37 32 26 25 23 20 17 20 18 19 19 20 20 25 34 35 33 34 36 29 30 25
43 36 34 29 26 33 26 28 35 37 38 34 29 26 24 23 19 19 19 19 18 19 21 16 26 27 28 29 29 26 25 20
39 45 48 26 23 24 32 44 38 32 34 33 33 27 25 24 22 19 19 20 19 19 21 20 26 27 20 23 25 22 20 20
Wind_Direction_850mb
12 98 141 146 143 141 140 139 138 137 136 137 137 140 143 146 150 155 150 148 148 149 156 164 185 217 235 237 232 229 236 230
29 158 164 150 145 143 142 141 139 138 139 140 140 143 146 146 146 146 147 148 148 154 156 163 188 222 236 247 251 256 251 237
46 188 163 155 149 145 142 140 140 140 141 140 139 140 142 142 145 150 151 150 151 154 145 151 157 235 253 227 254 238 224 246
173 189 170 161 153 148 146 144 143 143 141 138 138 140 145 150 150 153 152 153 154 152 137 134 161 145 138 138 131 163 131 137
238 188 177 166 158 154 152 148 146 144 141 141 141 143 150 155 158 155 157 159 157 150 127 120 99 108 83 77 111 133 131 146
211 184 178 169 161 157 154 150 149 146 147 146 149 150 154 148 152 159 163 155 156 145 126 110 98 98 96 90 116 132 149 159
199 180 172 165 162 161 157 153 152 152 151 154 156 156 162 160 162 166 164 164 160 144 127 115 98 108 104 100 103 137 150 149
177 175 167 164 164 163 158 155 156 157 159 159 155 158 162 162 164 165 168 173 160 149 130 122 124 116 105 95 97 111 127 131
170 169 166 166 165 162 160 158 159 157 156 152 156 157 158 164 165 170 172 167 166 155 139 130 144 126 114 98 107 121 127 124
168 165 165 165 164 162 162 162 158 157 151 152 153 152 152 165 170 166 172 176 171 165 152 145 150 141 136 109 115 130 113 120
167 164 163 164 164 163 162 161 160 156 151 151 152 146 146 155 167 184 182 189 183 173 164 157 156 153 149 122 125 140 127 123
165 164 164 164 164 163 162 160 160 158 155 155 152 146 147 150 162 181 186 187 183 176 167 158 161 159 168 146 138 145 136 127
164 164 165 164 164 163 164 162 159 157 158 156 151 155 148 151 153 157 164 175 175 174 165 164 175 170 174 161 147 152 151 139
163 163 160 160 162 162 166 165 163 159 158 157 152 147 146 155 155 156 152 149 156 168 158 155 164 173 167 160 156 162 161 151
161 160 158 155 156 166 168 168 168 166 163 160 156 150 149 155 163 162 146 144 143 149 153 163 160 158 160 165 157 153 163 160
134 153 159 163 165 166 170 175 174 175 170 167 161 159 157 153 162 165 154 151 141 148 147 147 143 152 157 158 158 159 159 162
135 125 129 145 151 165 175 177 180 181 176 173 170 169 165 156 158 170 157 157 141 141 151 151 152 153 151 159 166 173 169 176
127 127 125 117 121 132 160 181 179 179 178 176 169 170 169 167 157 166 160 146 136 138 142 167 165 166 164 164 170 180 181 182
113 120 131 135 151 152 157 166 178 175 176 182 170 169 163 166 164 163 167 162 149 144 145 160 166 164 176 176 169 185 185 181
90 101 92 112 137 166 174 173 163 177 175 182 182 180 177 177 172 163 165 167 165 154 156 155 142 144 167 179 183 179 186 187